FW1659 Weather Reports


time (UTC)temp
C
wind
direction
speed
KPH
gust
KPH
rain 1hr
cm
rain 24hr
cm
rain mn
cm
humidity
%
barometer
mb
20260504044531 22 144 16.1 22.5 0.00 0.00 0.00 70 1019.6
20260504043044 22 178 14.5 24.1 0.00 0.00 0.00 71 1019.7
20260504041534 22 144 16.1 24.1 0.00 0.00 0.00 71 1019.8
20260504040029 22 138 17.7 22.5 0.00 0.00 0.00 71 1019.6
20260504034529 22 139 14.5 22.5 0.00 0.00 0.00 69 1019.5
20260504033028 22 150 17.7 22.5 0.00 0.00 0.00 71 1019.3
20260504031528 22 138 17.7 24.1 0.00 0.00 0.00 70 1019.4
20260504030034 22 134 17.7 24.1 0.00 0.00 0.00 68 1019.3
20260504024528 22 142 19.3 22.5 0.00 0.00 0.00 68 1019.3
20260504023026 23 137 16.1 22.5 0.00 0.00 0.00 68 1019.3
20260504021526 23 132 17.7 22.5 0.00 0.00 0.00 66 1019.2
20260504020034 23 139 17.7 24.1 0.00 0.00 0.00 68 1019.0
20260504014525 23 132 19.3 24.1 0.00 0.00 0.00 67 1019.0
20260504013033 23 132 19.3 29.0 0.00 0.00 0.00 67 1018.9
20260504011523 23 134 20.9 27.4 0.00 0.00 0.00 68 1018.8
20260504010022 23 131 17.7 25.7 0.00 0.00 0.00 68 1018.9
20260504004535 23 135 17.7 24.1 0.00 0.00 0.00 65 1018.9
20260504003019 23 127 17.7 25.7 0.00 0.00 0.00 67 1019.1
20260504001530 23 112 14.5 25.7 0.00 0.00 0.00 66 1019.1
20260504000019 23 130 17.7 25.7 0.00 0.00 0.00 66 1019.2
20260503234519 23 134 19.3 25.7 0.00 0.00 0.00 67 1019.2
20260503233016 23 138 19.3 25.7 0.00 0.00 0.00 65 1019.2
20260503231515 23 126 16.1 24.1 0.00 0.00 0.00 64 1019.4
20260503230017 24 130 17.7 25.7 0.00 0.00 0.00 66 1019.4
20260503224513 24 132 17.7 24.1 0.00 0.00 0.00 64 1019.4
20260503223012 24 132 17.7 22.5 0.00 0.00 0.00 64 1019.5
20260503221510 24 128 16.1 27.4 0.00 0.00 0.00 60 1019.7
20260503220019 24 123 16.1 24.1 0.00 0.00 0.00 61 1020.2
20260503214512 25 132 16.1 22.5 0.00 0.00 0.00 62 1020.3
20260503213002 25 130 14.5 24.1 0.00 0.00 0.00 60 1020.7
20260503211602 25 136 17.7 24.1 0.00 0.00 0.00 58 1020.9
20260503210059 25 135 14.5 22.5 0.00 0.00 0.00 60 1021.0
20260503204559 25 137 14.5 22.5 0.00 0.00 0.00 57 1021.2
20260503203054 25 131 14.5 20.9 0.00 0.00 0.00 58 1021.4
20260503201553 25 110 14.5 20.9 0.00 0.00 0.00 57 1021.5
20260503200050 25 148 12.9 20.9 0.00 0.00 0.00 60 1021.7
20260503194603 25 134 16.1 20.9 0.00 0.00 0.00 57 1021.8
20260503193046 25 109 9.7 17.7 0.00 0.00 0.00 56 1022.1
20260503191551 25 111 11.3 17.7 0.00 0.00 0.00 56 1022.4
20260503190046 25 102 11.3 16.1 0.00 0.00 0.00 59 1022.6
20260503184543 25 99 11.3 17.7 0.00 0.00 0.00 57 1022.7
20260503183042 25 119 9.7 16.1 0.00 0.00 0.00 61 1023.1
20260503181554 25 96 8.0 16.1 0.00 0.00 0.00 58 1023.3
20260503180045 25 112 6.4 12.9 0.00 0.00 0.00 63 1023.5
20260503174533 24 108 9.7 16.1 0.00 0.00 0.00 61 1023.6
20260503173031 25 107 9.7 14.5 0.00 0.00 0.00 59 1023.6
20260503171530 24 111 9.7 14.5 0.00 0.00 0.00 56 1023.8
20260503081520 15 336 4.8 6.4 0.00 0.00 0.00 83 1022.4
20260503071512 15 333 3.2 6.4 0.00 0.00 0.00 82 1022.5